Location: Buch
(49.7331°N, 12.1098°E)
Time: 09:22:40
(UTC+00:00)

Cosmos 1898 Rocket - Pass Details

Date: 12 May 2021
Orbit: 753 x 784 km, 74.0° (Epoch: 13 June)

Event Time Altitude Azimuth Distance (km) Brightness Sun altitude
Exits shadow 22:10:33 20° 226° (SW) 1,742 5.1 -20.7°
Maximum altitude 22:14:08 56° 298° (WNW) 929 4.1 -20.9°
Drops below altitude 10° 22:19:24 10° 17° (NNE) 2,352 6.9 -21.1°
Sets 22:21:52 0° 22° (NNE) 3,286 7.7 -21.1°
